SCP
-0 0 0 -0 0 0 -1 -2 -1 -1 -1 -1 -1 -0 -0 -0 0 0 0 0 0 0 0 0 0 -0 -0 0 0 -0 0 0 0
0 0 0 1 0 0 0 -0 -1 -1 -1 -0 -1 -0 -0 -0 0 0 0 0 0 -0 0 0 0 -0 -0 0 0 0 -0 -0 0
0 0 0 1 1 0 0 -0 0 -1 -1 -1 -0 -0 0 0 0 0 0 0 0 -0 0 0 0 0 -0 0 0 0 0 0 0
-0 -0 0 0 0 0 0 -0 -0 0 -2 -1 -1 -0 0 0 0 0 0 0 0 0 0 0 0 0 -0 0 -0 -0 -0 0 0
0 -0 -0 0 0 0 0 0 -0 0 -1 -2 -1 -0 0 0 0 0 -0 0 -0 0 -0 -0 0 -0 -0 0 0 -0 -0 -0 -0
0 1 -0 -0 0 -0 -0 -0 -0 0 -0 -1 -1 -0 0 0 -0 -0 -0 -0 0 0 -0 -0 0 -0 -0 0 0 -0 -0 0 0
1 0 0 -0 -0 -0 0 0 0 0 0 0 -0 -0 0 0 0 -0 -0 0 0 0 0 0 0 -0 -0 0 0 0 0 0 0
1 0 1 0 -0 -0 0 0 0 -0 -0 0 0 0 0 0 0 0 0 0 0 0 0 0 0 -0 -0 -0 0 0 0 0 0
0 0 0 0 0 0 0 0 0 0 0 0 1 -0 1 1 0 0 0 0 0 0 0 0 0 0 -0 -0 -0 0 -0 -0 0
0 0 0 0 0 0 0 0 0 1 1 1 1 1 1 1 1 1 0 0 0 0 0 0 0 0 0 0 -0 -0 -0 -0 -0
0 0 0 0 0 0 -0 0 0 1 1 1 1 1 1 2 1 1 1 0 0 0 0 0 0 0 0 0 0 -0 -0 -0 0
0 0 0 0 0 -0 0 0 0 0 0 1 1 1 2 2 2 1 1 0 0 1 1 1 0 0 0 0 0 0 -0 0 0
0 0 0 0 0 0 0 0 0 0 0 1 0 0 1 2 2 2 2 1 1 1 1 1 1 1 1 0 0 0 0 0 0
0 0 0 0 0 0 0 0 -0 0 -0 0 0 -0 0 1 2 2 2 2 1 1 1 1 1 1 1 1 1 0 0 0 0
0 0 0 0 0 0 0 0 0 -0 -0 -0 -1 -0 -0 0 1 2 2 1 2 1 1 1 1 1 1 1 1 1 0 0 0
0 0 0 0 0 0 0 0 0 0 0 0 -1 -0 -0 0 0 1 0 2 1 2 1 1 1 1 1 1 1 1 0 0 0
0 0 0 0 0 0 0 -0 0 0 0 0 -0 -0 0 0 0 0 1 1 2 2 1 1 1 1 1 1 0 0 0 0 0
0 0 0 0 0 0 0 0 -0 0 0 1 -0 -0 0 0 0 1 0 1 1 2 2 1 1 1 1 1 0 0 0 0 0
0 0 0 0 0 0 0 0 0 0 0 0 1 0 0 0 0 0 0 0 0 0 0 0 0 0 1 1 0 0 0 0 0
0 0 0 0 0 0 -0 0 -0 -0 0 0 0 0 0 0 0 0 0 0 0 0 0 0 0 -0 0 0 0 0 0 0 0
Wind_Speed_500mb
55 37 67 83 89 68 77 73 68 64 61 54 49 45 46 42 37 35 36 35 35 34 39 28 45 45 37 34 32 31 33 35 29
70 30 25 35 45 28 41 58 68 69 66 58 49 49 43 42 38 35 32 31 34 33 36 36 44 40 36 32 34 35 37 33 29
72 52 38 46 41 38 38 22 43 75 70 63 53 47 42 41 37 29 26 29 28 36 39 39 44 43 37 36 33 34 37 31 29
59 56 35 13 43 8 22 39 38 66 76 67 60 51 44 37 35 30 28 34 28 36 45 42 43 46 39 37 42 41 38 35 30
53 57 46 19 42 25 47 40 46 60 80 67 60 53 44 36 33 30 33 36 43 30 49 48 43 46 45 40 45 45 43 38 34
44 56 53 43 51 31 46 25 51 54 70 73 58 56 47 40 41 36 30 33 41 40 53 59 42 60 53 48 49 48 47 40 38
40 51 56 52 31 38 25 30 36 47 54 69 67 61 53 40 41 43 34 29 39 48 59 51 47 55 51 47 51 54 52 47 42
41 42 43 41 38 28 24 29 28 59 63 54 75 68 60 50 39 40 38 35 33 48 66 58 47 51 60 57 52 55 55 50 45
35 31 29 31 26 29 28 26 24 30 33 63 65 70 64 57 48 39 43 40 39 45 62 64 58 53 45 62 55 56 56 51 50
32 29 29 26 22 25 29 29 28 30 29 24 58 70 65 65 60 49 48 44 46 47 50 64 64 58 54 54 57 58 55 50 48
31 30 29 25 25 26 30 22 29 35 38 31 24 56 77 73 68 62 52 52 51 51 53 57 63 62 54 51 53 51 50 49 53
31 31 33 35 35 35 32 29 34 39 41 40 36 33 53 73 74 72 65 51 60 59 59 60 61 62 57 53 53 53 54 53 56
28 30 35 34 35 40 38 34 34 47 46 46 46 36 47 62 69 68 72 59 56 63 62 63 61 63 60 57 54 52 50 54 57
30 26 30 34 38 51 49 45 44 45 49 45 45 44 33 39 60 64 68 71 59 60 62 64 64 64 64 62 58 56 55 53 55
52 50 43 33 32 38 43 44 55 48 48 52 54 50 44 42 45 60 61 72 68 63 63 65 67 64 64 63 61 59 56 55 54
53 62 64 62 61 58 44 45 45 49 44 53 57 59 50 41 45 57 66 73 74 70 63 72 71 70 66 63 60 57 54 51 51
63 58 65 65 64 64 63 54 52 48 42 50 56 58 57 51 48 50 57 59 67 69 64 73 71 69 74 63 46 54 55 56 55
67 69 67 64 64 68 56 55 56 46 42 46 55 57 58 55 54 55 57 52 64 72 71 75 71 71 75 72 72 57 64 61 57
56 62 65 65 66 69 68 63 59 52 45 47 48 58 57 56 55 50 43 47 59 56 63 71 71 64 70 72 69 55 57 59 48
68 70 71 65 69 80 79 77 73 63 52 48 47 53 57 56 55 46 41 42 35 32 9 23 68 66 58 82 66 58 55 57 51
Wind_Direction_500mb
45 195 190 196 196 192 200 202 207 210 211 209 212 216 220 227 228 237 243 245 230 210 197 211 201 203 196 204 206 209 211 196 193
47 75 175 167 157 176 207 209 212 215 219 214 217 218 223 226 230 232 238 236 218 217 207 203 204 206 200 200 214 212 207 194 194
70 66 120 145 122 190 180 225 242 224 224 220 217 220 225 225 229 230 239 224 227 210 197 200 205 207 207 213 217 208 195 200 206
90 86 73 179 181 208 190 260 281 238 226 221 219 221 224 227 231 230 232 218 209 205 192 195 206 207 209 223 217 207 202 200 197
81 87 75 62 205 205 166 224 248 229 229 221 222 225 225 230 233 234 233 219 214 209 196 199 214 215 208 213 218 209 205 204 206
74 89 85 96 140 130 225 218 203 224 225 222 224 223 225 233 228 234 231 219 211 211 200 202 211 213 213 214 215 211 209 213 218
87 84 95 94 100 172 245 281 224 229 221 226 224 225 223 231 236 237 237 220 208 205 201 209 217 208 209 221 221 213 214 217 221
86 77 69 72 87 69 35 19 17 230 220 224 226 223 226 233 243 245 238 228 215 209 204 212 217 216 217 219 227 223 218 220 223
75 63 56 48 36 38 34 20 9 353 251 241 231 228 235 237 238 246 241 231 220 212 214 218 217 223 227 225 228 225 223 225 229
45 28 27 32 14 349 343 2 15 355 348 267 240 242 241 239 236 235 241 233 224 217 220 222 226 232 236 237 234 233 231 232 238
26 23 26 20 10 360 355 340 343 347 338 316 287 250 243 243 238 235 238 235 232 227 221 223 230 235 237 240 239 237 235 236 237
357 353 347 338 336 344 353 350 335 327 330 327 308 286 255 247 244 238 236 240 234 234 228 226 231 235 236 239 242 241 234 234 235
325 323 322 319 303 308 309 326 329 327 319 322 328 306 268 261 251 246 245 246 245 234 233 234 235 237 239 241 243 235 232 235 238
330 337 314 304 303 297 294 296 309 314 312 308 316 320 300 265 247 251 251 250 246 243 231 235 237 240 243 243 241 237 232 234 241
298 300 302 304 305 293 293 294 293 302 301 305 301 305 311 284 258 252 255 250 245 246 238 235 237 239 242 242 241 242 239 237 241
293 292 292 294 294 294 294 285 285 300 302 296 302 302 302 302 275 262 260 250 248 242 239 233 229 231 235 240 241 242 240 235 237
285 282 285 289 293 289 288 286 284 284 304 290 297 303 300 297 294 279 258 253 250 245 239 235 232 227 230 231 227 235 237 234 235
279 279 282 285 281 283 285 280 281 285 293 285 293 298 300 295 300 298 271 263 258 251 255 251 244 233 225 222 222 225 222 228 231
281 280 284 281 280 278 279 285 286 280 285 291 290 297 299 297 306 305 283 265 259 258 246 243 248 251 240 224 228 230 218 221 219
284 281 287 287 281 280 283 279 280 276 277 284 285 285 294 296 298 303 301 269 246 232 294 279 236 266 272 239 225 219 219 212 213
Wind_Speed_850mb
55 37 67 83 89 68 77 73 68 64 61 54 49 45 46 42 37 35 36 35 35 34 39 28 45 45 37 34 32 31 33 35 29
70 30 25 35 45 28 41 58 68 69 66 58 49 49 43 42 38 35 32 31 34 33 36 36 44 40 36 32 34 35 37 33 29
72 52 38 46 41 38 38 22 43 75 70 63 53 47 42 41 37 29 26 29 28 36 39 39 44 43 37 36 33 34 37 31 29
59 56 35 13 43 8 22 39 38 66 76 67 60 51 44 37 35 30 28 34 28 36 45 42 43 46 39 37 42 41 38 35 30
53 57 46 19 42 25 47 40 46 60 80 67 60 53 44 36 33 30 33 36 43 30 49 48 43 46 45 40 45 45 43 38 34
44 56 53 43 51 31 46 25 51 54 70 73 58 56 47 40 41 36 30 33 41 40 53 59 42 60 53 48 49 48 47 40 38
40 51 56 52 31 38 25 30 36 47 54 69 67 61 53 40 41 43 34 29 39 48 59 51 47 55 51 47 51 54 52 47 42
41 42 43 41 38 28 24 29 28 59 63 54 75 68 60 50 39 40 38 35 33 48 66 58 47 51 60 57 52 55 55 50 45
35 31 29 31 26 29 28 26 24 30 33 63 65 70 64 57 48 39 43 40 39 45 62 64 58 53 45 62 55 56 56 51 50
32 29 29 26 22 25 29 29 28 30 29 24 58 70 65 65 60 49 48 44 46 47 50 64 64 58 54 54 57 58 55 50 48
31 30 29 25 25 26 30 22 29 35 38 31 24 56 77 73 68 62 52 52 51 51 53 57 63 62 54 51 53 51 50 49 53
31 31 33 35 35 35 32 29 34 39 41 40 36 33 53 73 74 72 65 51 60 59 59 60 61 62 57 53 53 53 54 53 56
28 30 35 34 35 40 38 34 34 47 46 46 46 36 47 62 69 68 72 59 56 63 62 63 61 63 60 57 54 52 50 54 57
30 26 30 34 38 51 49 45 44 45 49 45 45 44 33 39 60 64 68 71 59 60 62 64 64 64 64 62 58 56 55 53 55
52 50 43 33 32 38 43 44 55 48 48 52 54 50 44 42 45 60 61 72 68 63 63 65 67 64 64 63 61 59 56 55 54
53 62 64 62 61 58 44 45 45 49 44 53 57 59 50 41 45 57 66 73 74 70 63 72 71 70 66 63 60 57 54 51 51
63 58 65 65 64 64 63 54 52 48 42 50 56 58 57 51 48 50 57 59 67 69 64 73 71 69 74 63 46 54 55 56 55
67 69 67 64 64 68 56 55 56 46 42 46 55 57 58 55 54 55 57 52 64 72 71 75 71 71 75 72 72 57 64 61 57
56 62 65 65 66 69 68 63 59 52 45 47 48 58 57 56 55 50 43 47 59 56 63 71 71 64 70 72 69 55 57 59 48
68 70 71 65 69 80 79 77 73 63 52 48 47 53 57 56 55 46 41 42 35 32 9 23 68 66 58 82 66 58 55 57 51
Wind_Direction_850mb
45 195 190 196 196 192 200 202 207 210 211 209 212 216 220 227 228 237 243 245 230 210 197 211 201 203 196 204 206 209 211 196 193
47 75 175 167 157 176 207 209 212 215 219 214 217 218 223 226 230 232 238 236 218 217 207 203 204 206 200 200 214 212 207 194 194
70 66 120 145 122 190 180 225 242 224 224 220 217 220 225 225 229 230 239 224 227 210 197 200 205 207 207 213 217 208 195 200 206
90 86 73 179 181 208 190 260 281 238 226 221 219 221 224 227 231 230 232 218 209 205 192 195 206 207 209 223 217 207 202 200 197
81 87 75 62 205 205 166 224 248 229 229 221 222 225 225 230 233 234 233 219 214 209 196 199 214 215 208 213 218 209 205 204 206
74 89 85 96 140 130 225 218 203 224 225 222 224 223 225 233 228 234 231 219 211 211 200 202 211 213 213 214 215 211 209 213 218
87 84 95 94 100 172 245 281 224 229 221 226 224 225 223 231 236 237 237 220 208 205 201 209 217 208 209 221 221 213 214 217 221
86 77 69 72 87 69 35 19 17 230 220 224 226 223 226 233 243 245 238 228 215 209 204 212 217 216 217 219 227 223 218 220 223
75 63 56 48 36 38 34 20 9 353 251 241 231 228 235 237 238 246 241 231 220 212 214 218 217 223 227 225 228 225 223 225 229
45 28 27 32 14 349 343 2 15 355 348 267 240 242 241 239 236 235 241 233 224 217 220 222 226 232 236 237 234 233 231 232 238
26 23 26 20 10 360 355 340 343 347 338 316 287 250 243 243 238 235 238 235 232 227 221 223 230 235 237 240 239 237 235 236 237
357 353 347 338 336 344 353 350 335 327 330 327 308 286 255 247 244 238 236 240 234 234 228 226 231 235 236 239 242 241 234 234 235
325 323 322 319 303 308 309 326 329 327 319 322 328 306 268 261 251 246 245 246 245 234 233 234 235 237 239 241 243 235 232 235 238
330 337 314 304 303 297 294 296 309 314 312 308 316 320 300 265 247 251 251 250 246 243 231 235 237 240 243 243 241 237 232 234 241
298 300 302 304 305 293 293 294 293 302 301 305 301 305 311 284 258 252 255 250 245 246 238 235 237 239 242 242 241 242 239 237 241
293 292 292 294 294 294 294 285 285 300 302 296 302 302 302 302 275 262 260 250 248 242 239 233 229 231 235 240 241 242 240 235 237
285 282 285 289 293 289 288 286 284 284 304 290 297 303 300 297 294 279 258 253 250 245 239 235 232 227 230 231 227 235 237 234 235
279 279 282 285 281 283 285 280 281 285 293 285 293 298 300 295 300 298 271 263 258 251 255 251 244 233 225 222 222 225 222 228 231
281 280 284 281 280 278 279 285 286 280 285 291 290 297 299 297 306 305 283 265 259 258 246 243 248 251 240 224 228 230 218 221 219
284 281 287 287 281 280 283 279 280 276 277 284 285 285 294 296 298 303 301 269 246 232 294 279 236 266 272 239 225 219 219 212 213